Showing default

SZ-19, 61683

Orbit data source: Space-Track

SZ-19, 61683 is a payload satellite owned by ZZHGB (CN) in LEO that was launched on Tue, 29 Oct 2024 UTC via a CHANG ZHENG 2F launch vehicle from the Jiuquan Satellite Launch Center, China (JSC). Payloads include a variety of satellites, spacecraft, and rockets equipped with specific instruments for various scientific and technological missions. These include communications satellites like Starlink; space stations such as the ISS; scientific satellites like the Hubble; Earth observation satellites from companies like Planet Labs, Umbra, and HawkEye 360; GPS; miniature CubeSats for education and research; and military/defense satellites.

Loading next visibility...
SZ-19 details
Identifier
61683, 2024-194A
Orbit
LEO
Last TLE update1 day ago
Origin
Flag of CNZZHGB (CN / PRC)
ManufacturerCALT
MissionOperational spacecraft
Bus & MotorSHENZHOU, Unknown motor
Mass~8,100 kg wet, 3,258 kg dry
Launch date (UTC)
2024-10-29 (2 months ago)
Launch vehicle
CHANG ZHENG 2F
Launch site
Jiuquan Satellite Launch Center, China (JSC)
Object type
Payload
Rocket body
Debris
Shape & HBRUnknown
Radar Cross SectionLarge (>1 m²)

Expand to show TLE details & history

TLE from 1 day ago
0 SZ-19
1 61683U 24194A   24360.44186321  .00036062  00000-0  42831-3 0  9996
2 61683  41.4680 357.6724 0001984 253.1407 106.9215 15.60442499208858
Epoch: 2024-12-25T10:36Z
Definitive object data (Epoch: 2024-12-25T10:36:16.981Z)
Latitude0.00004°
Longitude104.16614°
Altitude386.368 km
Speed7.68 km/s
True Right ascension23h 50m 41s
True Declination0° 00' 00"
Sunlit
Object was in daylight at TLE epoch
Visualization TLE readout
Latitude36.43976°
Longitude154.04796°
Altitude388.976 km
Speed7.682 km/s
Apparent Right ascension01h 07m 08s
Apparent Declination0° 28' 31"
Sunlit
Object is in full shadow
Visualization observer readout
Local Sidereal Time10:48:23
Azimuth312.485° NW
Elevation-39.49°
Doppler factor1
Orbital elements
Apogee altitude389.953 km
Perigee altitude387.268 km
Semi-major axis6,766.748 km
Eccentricity0.0001984
Inclination41.468°
RAAN357.6724°
Arg. of periapsis253.1407°
True anomaly106.94325°
Mean anomaly106.9215°
Eccentric anomaly106.93237°
Mean motion3.89918 °/min
BSTAR0.00042831
Orbital period92.33 mins
Loading maneuver chart data...
Loading historical data...
Loading historical data...
Loading historical data...
Loading historical data...
Loading historical data...
Loading historical data...
Loading historical data...
Other satellites on launch #194 in the year 2024 (2024-10-29 UTC)

SZ-19 Visibility forecast

Observer location: undefined°, undefined

Span
Click to sort rows by Start time (UTC) header in descending order
Start Az.
Max El. time (UTC)
Max El. Az.
Max El.
End time (UTC)
End Az.
4 mins2024-12-27 02:45:01.962Z197.688° SSW2024-12-27 02:47:01.962Z149.803° SSE21.089°2024-12-27 02:49:01.962Z102.77° ESE
4 mins2024-12-27 04:22:01.962Z254.361° W2024-12-27 04:24:01.962Z82.427° E42.332°2024-12-27 04:26:01.962Z77.559° E
4 mins2024-12-27 05:59:01.962Z287.445° WNW2024-12-27 06:01:01.962Z48.753° ENE39.649°2024-12-27 06:03:01.962Z84.034° E
4 mins2024-12-27 07:36:01.962Z268.719° W2024-12-27 07:37:01.962Z239.672° WSW37.225°2024-12-27 07:40:01.962Z122.74° SE
|